Flag for Norway Weather past 2 weeks in Hommelvik, Norway

Now
58 °F

Rain. Fog.


Feels Like: 58 °F
Forecast: 55 / 80 °F
Wind: 2 mph from Southwest

Location: Trondheim / Vaernes

Current Time: Jul 1, 2015 at 2:19:56 PM

Latest Report: Jul 1, 2015 at 1:00 PM


Visibility: 4 mi

Pressure: 30.19 "Hg

Humidity: 91%

Dew point: 56 °F

Location of HommelvikLocation

Historic Weather in Hommelvik — Graph

°F

Hommelvik temperature yesterday

Maximum temperature yesterday: 60 °F (at 3:00 PM)
Minimum temperature yesterday: 53 °F (at 5:00 AM)
Average temperature yesterday: 56 °F

Past Weeks' High & Low Weather Summary

 TemperatureHumidityPressure
High67 °F (Jun 28, 5:00 PM)95% (Jun 18, 5:00 AM)30.20 "Hg (Jun 18, 5:00 AM)
Low39 °F (Jun 17, 3:00 AM)37% (Jun 17, 5:00 PM)29.63 "Hg (Jun 17, 8:00 PM)
Average53 °F76%29.92 "Hg
* Reported Jun 16 1:00 PM — Jul 1 1:00 PM, Hommelvik, Weather by CustomWeather, © 2015

Note: Actual official high and low records may vary slightly from our data, if they occured in-between our weather recording intervals... More about our weather records

Advertising

Hommelvik weather history for previous 24 hours

 ConditionsComfort  
Time TempWeatherWind HumidityBarometerVisibility
1:00 PM
Wed, Jul 1
58 °FRain. Fog.2 mph91%30.19 "Hg4 mi
12:00 PM58 °FRain. Overcast.No wind89%30.19 "Hg3 mi
11:00 AM58 °FRain. Overcast.2 mph85%30.19 "Hg6 mi
10:00 AM59 °FRain showers. Overcast.2 mph83%30.16 "Hg17 mi
9:00 AM58 °FRain showers. Overcast.2 mph75%30.15 "Hg25 mi
8:00 AM57 °FOvercast.3 mph75%30.15 "Hg28 mi
7:00 AM55 °FCool.3 mph79%30.16 "HgN/A
6:00 AM54 °FOvercast.3 mph83%30.16 "Hg31 mi
5:00 AM54 °FOvercast.3 mph86%30.17 "Hg31 mi
4:00 AM53 °FOvercast.3 mph86%30.18 "Hg25 mi
3:00 AM53 °FOvercast.3 mph90%30.18 "Hg28 mi
2:00 AM53 °FOvercast.2 mph90%30.19 "Hg25 mi
1:00 AM54 °FOvercast.3 mph90%30.20 "Hg25 mi
12:00 AM55 °FOvercast.2 mph86%30.20 "Hg28 mi
11:00 PM
Tue, Jun 30
56 °FOvercast.1 mph80%30.20 "Hg28 mi
10:00 PM56 °FOvercast.2 mph78%30.19 "Hg28 mi
9:00 PM57 °FOvercast.3 mph76%30.19 "Hg25 mi
8:00 PM59 °FPartly sunny.5 mph74%30.19 "Hg28 mi
6:00 PM59 °FOvercast.5 mph73%30.18 "Hg22 mi
4:00 PM60 °FPartly sunny.7 mph68%30.17 "Hg25 mi
3:00 PM60 °FScattered clouds.7 mph68%30.16 "Hg22 mi
2:00 PM58 °FPartly sunny.3 mph72%30.15 "Hg18 mi
Weather by CustomWeather, © 2015

See weather overviewHow to use our weather pages